This is the latest recevied weather packets stored in our database for station/object EA1IDU-12. If no packets are shown the sender has not sent any weather packets the latest 1 day(s).
| Time | Temp. | Humidity | Pressure | Rain* | Wind** | Luminosity | Snow |
|---|---|---|---|---|---|---|---|
| 1788652516 | 21.67° C | 32% | 1032.2 hPa | - | - | - | - |
| 1788651615 | 22.22° C | 32% | 1032.1 hPa | - | - | - | - |
| 1788650715 | 22.22° C | 31% | 1032.2 hPa | - | - | - | - |
| 1788649815 | 22.22° C | 31% | 1032.4 hPa | - | - | - | - |
| 1788648915 | 22.22° C | 31% | 1032.3 hPa | - | - | - | - |
| 1788648015 | 22.78° C | 30% | 1032.2 hPa | - | - | - | - |
| 1788647115 | 22.22° C | 30% | 1032.2 hPa | - | - | - | - |
| 1788646214 | 22.78° C | 30% | 1032.2 hPa | - | - | - | - |
| 1788645314 | 22.78° C | 30% | 1032.3 hPa | - | - | - | - |
| 1788644414 | 23.33° C | 29% | 1032 hPa | - | - | - | - |
| 1788643514 | 23.33° C | 29% | 1032 hPa | - | - | - | - |
| 1788642614 | 23.33° C | 28% | 1032.1 hPa | - | - | - | - |
| 1788641714 | 23.33° C | 29% | 1032.2 hPa | - | - | - | - |
| 1788640813 | 23.89° C | 28% | 1032.1 hPa | - | - | - | - |
| 1788639913 | 23.89° C | 27% | 1032.3 hPa | - | - | - | - |
| 1788639013 | 23.89° C | 28% | 1032.1 hPa | - | - | - | - |
| 1788638238 | 23.89° C | 27% | 1031.9 hPa | - | - | - | - |
| 1788637213 | 24.44° C | 27% | 1031.9 hPa | - | - | - | - |
| 1788636312 | 25° C | 26% | 1032 hPa | - | - | - | - |
| 1788635412 | 25.56° C | 25% | 1031.7 hPa | - | - | - | - |
| 1788634511 | 26.11° C | 25% | 1031.6 hPa | - | - | - | - |
| 1788633611 | 26.67° C | 25% | 1031.6 hPa | - | - | - | - |
| 1788632711 | 27.22° C | 24% | 1031.5 hPa | - | - | - | - |
| 1788631811 | 27.78° C | 23% | 1031 hPa | - | - | - | - |
| 1788630911 | 28.89° C | 23% | 1031 hPa | - | - | - | - |
* Rain since midnight (hover to see other rain measurements)
** Current wind speed in m/s (hover to see current wind gust speed)